Time,TemperatureF,DewpointF,PressureIn,WindDirection,WindDirectionDegrees,WindSpeedMPH,WindSpeedGustMPH,Humidity,HourlyPrecipIn,Conditions,Clouds,dailyrainin,SoftwareType,DateUTC
2013-04-07 00:00:00,29.7,20.5,30.29,ESE,105,0.0,4.0,68,0.00,,,0.00,VWS V14.01,2013-04-07 04:00:00,
2013-04-07 00:01:00,29.7,20.5,30.29,ESE,105,0.0,1.0,68,0.00,,,0.00,VWS V14.01,2013-04-07 04:01:00,
2013-04-07 00:06:00,29.5,20.3,30.29,ESE,105,1.0,4.0,68,0.00,,,0.00,VWS V14.01,2013-04-07 04:06:00,
2013-04-07 00:12:00,29.6,20.0,30.29,ESE,105,1.0,4.0,67,0.00,,,0.00,VWS V14.01,2013-04-07 04:12:00,
2013-04-07 00:17:00,29.6,19.3,30.29,ESE,105,0.0,4.0,65,0.00,,,0.00,VWS V14.01,2013-04-07 04:17:00,
2013-04-07 00:22:00,29.5,20.3,30.29,ESE,105,0.0,4.0,68,0.00,,,0.00,VWS V14.01,2013-04-07 04:22:00,
2013-04-07 00:27:00,29.2,20.0,30.29,ESE,105,1.0,4.0,68,0.00,,,0.00,VWS V14.01,2013-04-07 04:27:00,
2013-04-07 00:32:00,29.2,20.3,30.29,ESE,105,1.0,4.0,69,0.00,,,0.00,VWS V14.01,2013-04-07 04:32:00,
2013-04-07 00:37:00,29.1,19.9,30.29,ESE,105,0.0,4.0,68,0.00,,,0.00,VWS V14.01,2013-04-07 04:37:00,
2013-04-07 00:42:00,29.1,19.9,30.29,ESE,105,2.0,4.0,68,0.00,,,0.00,VWS V14.01,2013-04-07 04:42:00,
2013-04-07 00:47:00,29.2,19.6,30.29,ESE,105,1.0,4.0,67,0.00,,,0.00,VWS V14.01,2013-04-07 04:47:00,
2013-04-07 00:52:00,29.3,19.4,30.29,ESE,105,0.0,4.0,66,0.00,,,0.00,VWS V14.01,2013-04-07 04:52:00,
2013-04-07 00:58:00,29.2,20.3,30.29,ESE,105,0.0,4.0,69,0.00,,,0.00,VWS V14.01,2013-04-07 04:58:00,
2013-04-07 01:03:00,29.0,20.1,30.28,ESE,105,0.0,0.0,69,0.00,,,0.00,VWS V14.01,2013-04-07 05:03:00,
2013-04-07 01:08:00,28.9,20.4,30.28,ESE,105,1.0,2.0,70,0.00,,,0.00,VWS V14.01,2013-04-07 05:08:00,
2013-04-07 01:13:00,28.8,20.6,30.28,ESE,105,1.0,2.0,71,0.00,,,0.00,VWS V14.01,2013-04-07 05:13:00,
2013-04-07 01:18:00,28.8,20.6,30.29,ESE,105,0.0,2.0,71,0.00,,,0.00,VWS V14.01,2013-04-07 05:18:00,
2013-04-07 01:23:00,28.7,20.5,30.28,ESE,105,1.0,2.0,71,0.00,,,0.00,VWS V14.01,2013-04-07 05:23:00,
2013-04-07 01:28:00,28.7,20.2,30.28,ESE,105,0.0,2.0,70,0.00,,,0.00,VWS V14.01,2013-04-07 05:28:00,
2013-04-07 01:33:00,28.6,20.1,30.28,ESE,105,2.0,2.0,70,0.00,,,0.00,VWS V14.01,2013-04-07 05:33:00,
2013-04-07 01:38:00,28.5,20.6,30.28,ESE,105,2.0,4.0,72,0.00,,,0.00,VWS V14.01,2013-04-07 05:38:00,
2013-04-07 01:43:00,28.5,20.3,30.28,ESE,105,0.0,4.0,71,0.00,,,0.00,VWS V14.01,2013-04-07 05:43:00,
2013-04-07 01:48:00,28.4,20.9,30.28,ESE,105,0.0,4.0,73,0.00,,,0.00,VWS V14.01,2013-04-07 05:48:00,
2013-04-07 01:53:00,28.3,21.1,30.28,ESE,105,1.0,4.0,74,0.00,,,0.00,VWS V14.01,2013-04-07 05:53:00,
2013-04-07 01:58:00,28.3,20.8,30.28,ESE,105,1.0,4.0,73,0.00,,,0.00,VWS V14.01,2013-04-07 05:58:00,
2013-04-07 02:03:00,28.3,20.8,30.27,ESE,105,0.0,2.0,73,0.00,,,0.00,VWS V14.01,2013-04-07 06:03:00,
2013-04-07 02:08:00,28.3,20.8,30.27,ESE,105,0.0,2.0,73,0.00,,,0.00,VWS V14.01,2013-04-07 06:08:00,
2013-04-07 02:13:00,28.3,20.4,30.27,ESE,105,0.0,2.0,72,0.00,,,0.00,VWS V14.01,2013-04-07 06:13:00,
2013-04-07 02:18:00,28.3,20.8,30.26,ESE,105,0.0,2.0,73,0.00,,,0.00,VWS V14.01,2013-04-07 06:18:00,
2013-04-07 02:24:00,28.1,20.9,30.26,ESE,105,1.0,2.0,74,0.00,,,0.00,VWS V14.01,2013-04-07 06:24:00,
2013-04-07 02:28:00,28.1,20.9,30.26,ESE,105,0.0,2.0,74,0.00,,,0.00,VWS V14.01,2013-04-07 06:28:00,
2013-04-07 02:34:00,28.0,21.4,30.26,ESE,105,0.0,1.0,76,0.00,,,0.00,VWS V14.01,2013-04-07 06:34:00,
2013-04-07 02:39:00,28.0,21.4,30.26,ESE,105,0.0,4.0,76,0.00,,,0.00,VWS V14.01,2013-04-07 06:39:00,
2013-04-07 02:44:00,28.0,21.4,30.25,ESE,105,1.0,4.0,76,0.00,,,0.00,VWS V14.01,2013-04-07 06:44:00,
2013-04-07 02:49:00,28.0,21.4,30.26,ESE,105,0.0,4.0,76,0.00,,,0.00,VWS V14.01,2013-04-07 06:49:00,
2013-04-07 02:54:00,28.1,21.5,30.26,ESE,105,0.0,4.0,76,0.00,,,0.00,VWS V14.01,2013-04-07 06:54:00,
2013-04-07 02:59:00,28.3,21.4,30.26,ESE,105,1.0,4.0,75,0.00,,,0.00,VWS V14.01,2013-04-07 06:59:00,
2013-04-07 03:04:00,28.6,21.7,30.26,ESE,105,0.0,1.0,75,0.00,,,0.00,VWS V14.01,2013-04-07 07:04:00,
2013-04-07 03:09:00,28.8,21.6,30.25,ESE,105,0.0,2.0,74,0.00,,,0.00,VWS V14.01,2013-04-07 07:09:00,
2013-04-07 03:14:00,29.0,22.1,30.25,ESE,105,1.0,2.0,75,0.00,,,0.00,VWS V14.01,2013-04-07 07:14:00,
2013-04-07 03:19:00,29.2,22.0,30.25,ESE,105,2.0,2.0,74,0.00,,,0.00,VWS V14.01,2013-04-07 07:19:00,
2013-04-07 03:24:00,29.4,21.8,30.25,ESE,105,0.0,2.0,73,0.00,,,0.00,VWS V14.01,2013-04-07 07:24:00,
2013-04-07 03:29:00,29.6,22.0,30.25,ESE,105,0.0,2.0,73,0.00,,,0.00,VWS V14.01,2013-04-07 07:29:00,
2013-04-07 03:35:00,29.8,21.9,30.25,ESE,105,1.0,2.0,72,0.00,,,0.00,VWS V14.01,2013-04-07 07:35:00,
2013-04-07 03:40:00,29.9,22.3,30.25,ESE,105,1.0,2.0,73,0.00,,,0.00,VWS V14.01,2013-04-07 07:40:00,
2013-04-07 03:45:00,29.9,22.3,30.25,ESE,105,0.0,2.0,73,0.00,,,0.00,VWS V14.01,2013-04-07 07:45:00,
2013-04-07 03:50:00,29.8,22.2,30.25,ESE,105,1.0,2.0,73,0.00,,,0.00,VWS V14.01,2013-04-07 07:50:00,
2013-04-07 03:55:00,29.8,22.5,30.26,ESE,105,0.0,2.0,74,0.00,,,0.00,VWS V14.01,2013-04-07 07:55:00,
2013-04-07 04:00:00,29.7,22.4,30.26,ESE,105,0.0,2.0,74,0.00,,,0.00,VWS V14.01,2013-04-07 08:00:00,
2013-04-07 04:05:00,29.6,22.7,30.26,ESE,105,0.0,0.0,75,0.00,,,0.00,VWS V14.01,2013-04-07 08:05:00,
2013-04-07 04:10:00,29.4,22.5,30.26,ESE,105,0.0,2.0,75,0.00,,,0.00,VWS V14.01,2013-04-07 08:10:00,
2013-04-07 04:15:00,29.3,22.7,30.26,ESE,105,0.0,2.0,76,0.00,,,0.00,VWS V14.01,2013-04-07 08:15:00,
2013-04-07 04:20:00,29.1,22.8,30.25,ESE,105,1.0,2.0,77,0.00,,,0.00,VWS V14.01,2013-04-07 08:20:00,
2013-04-07 04:25:00,29.0,22.7,30.26,ESE,105,0.0,2.0,77,0.00,,,0.00,VWS V14.01,2013-04-07 08:25:00,
2013-04-07 04:30:00,29.0,23.0,30.25,ESE,105,0.0,4.0,78,0.00,,,0.00,VWS V14.01,2013-04-07 08:30:00,
2013-04-07 04:35:00,28.8,22.8,30.25,ESE,105,0.0,0.0,78,0.00,,,0.00,VWS V14.01,2013-04-07 08:35:00,
2013-04-07 04:40:00,28.7,22.7,30.25,ESE,105,0.0,1.0,78,0.00,,,0.00,VWS V14.01,2013-04-07 08:40:00,
2013-04-07 04:45:00,28.6,22.9,30.25,ESE,105,0.0,2.0,79,0.00,,,0.00,VWS V14.01,2013-04-07 08:45:00,
2013-04-07 04:50:00,28.4,22.7,30.25,ESE,105,0.0,2.0,79,0.00,,,0.00,VWS V14.01,2013-04-07 08:50:00,
2013-04-07 04:55:00,28.2,22.8,30.25,ESE,105,0.0,2.0,80,0.00,,,0.00,VWS V14.01,2013-04-07 08:55:00,
2013-04-07 05:00:00,28.2,22.8,30.25,ESE,105,0.0,2.0,80,0.00,,,0.00,VWS V14.01,2013-04-07 09:00:00,
2013-04-07 05:06:00,28.1,23.0,30.25,ESE,105,0.0,4.0,81,0.00,,,0.00,VWS V14.01,2013-04-07 09:06:00,
2013-04-07 05:11:00,28.1,23.0,30.25,ESE,105,0.0,4.0,81,0.00,,,0.00,VWS V14.01,2013-04-07 09:11:00,
2013-04-07 05:16:00,28.0,22.9,30.25,ESE,105,2.0,4.0,81,0.00,,,0.00,VWS V14.01,2013-04-07 09:16:00,
2013-04-07 05:21:00,28.1,23.0,30.25,ESE,105,0.0,4.0,81,0.00,,,0.00,VWS V14.01,2013-04-07 09:21:00,
2013-04-07 05:26:00,28.1,23.0,30.25,ESE,105,0.0,4.0,81,0.00,,,0.00,VWS V14.01,2013-04-07 09:26:00,
2013-04-07 05:32:00,28.1,23.3,30.25,ESE,105,0.0,1.0,82,0.00,,,0.00,VWS V14.01,2013-04-07 09:32:00,
2013-04-07 05:37:00,28.1,23.3,30.25,ESE,105,0.0,2.0,82,0.00,,,0.00,VWS V14.01,2013-04-07 09:37:00,
2013-04-07 05:42:00,28.2,23.4,30.25,ESE,105,2.0,4.0,82,0.00,,,0.00,VWS V14.01,2013-04-07 09:42:00,
2013-04-07 05:47:00,28.3,23.5,30.26,ESE,105,0.0,4.0,82,0.00,,,0.00,VWS V14.01,2013-04-07 09:47:00,
2013-04-07 05:52:00,28.4,23.6,30.26,ESE,105,0.0,4.0,82,0.00,,,0.00,VWS V14.01,2013-04-07 09:52:00,
2013-04-07 05:57:00,28.5,24.0,30.26,ESE,105,0.0,4.0,83,0.00,,,0.00,VWS V14.01,2013-04-07 09:57:00,
2013-04-07 06:02:00,28.6,24.1,30.26,ESE,105,0.0,1.0,83,0.00,,,0.00,VWS V14.01,2013-04-07 10:02:00,
2013-04-07 06:07:00,28.7,24.2,30.26,ESE,105,0.0,2.0,83,0.00,,,0.00,VWS V14.01,2013-04-07 10:07:00,
2013-04-07 06:12:00,28.9,24.4,30.27,ESE,105,0.0,2.0,83,0.00,,,0.00,VWS V14.01,2013-04-07 10:12:00,
2013-04-07 06:17:00,29.0,24.5,30.27,ESE,105,2.0,2.0,83,0.00,,,0.00,VWS V14.01,2013-04-07 10:17:00,
2013-04-07 06:23:00,29.2,24.7,30.27,ESE,105,2.0,2.0,83,0.00,,,0.00,VWS V14.01,2013-04-07 10:23:00,
2013-04-07 06:28:00,29.3,24.8,30.27,ESE,105,0.0,2.0,83,0.00,,,0.00,VWS V14.01,2013-04-07 10:28:00,
2013-04-07 06:33:00,29.4,25.2,30.27,ESE,105,1.0,2.0,84,0.00,,,0.00,VWS V14.01,2013-04-07 10:33:00,
2013-04-07 06:38:00,29.6,25.4,30.27,ESE,105,0.0,2.0,84,0.00,,,0.00,VWS V14.01,2013-04-07 10:38:00,
2013-04-07 06:43:00,29.7,25.2,30.27,ESE,105,0.0,2.0,83,0.00,,,0.00,VWS V14.01,2013-04-07 10:43:00,
2013-04-07 06:48:00,29.9,25.4,30.27,ESE,105,0.0,2.0,83,0.00,,,0.00,VWS V14.01,2013-04-07 10:48:00,
2013-04-07 06:53:00,30.1,25.9,30.27,ESE,105,0.0,2.0,84,0.00,,,0.00,VWS V14.01,2013-04-07 10:53:00,
2013-04-07 06:59:00,30.3,26.1,30.27,ESE,105,0.0,2.0,84,0.00,,,0.00,VWS V14.01,2013-04-07 10:59:00,
2013-04-07 07:04:00,30.5,26.0,30.28,ESE,105,0.0,0.0,83,0.00,,,0.00,VWS V14.01,2013-04-07 11:04:00,
2013-04-07 07:09:00,30.7,26.2,30.28,ESE,105,0.0,0.0,83,0.00,,,0.00,VWS V14.01,2013-04-07 11:09:00,
2013-04-07 07:14:00,31.0,26.7,30.28,ESE,105,0.0,0.0,84,0.00,,,0.00,VWS V14.01,2013-04-07 11:14:00,
2013-04-07 07:19:00,31.2,26.6,30.28,ESE,105,0.0,1.0,83,0.00,,,0.00,VWS V14.01,2013-04-07 11:19:00,
2013-04-07 07:24:00,31.5,26.9,30.27,ESE,105,0.0,1.0,83,0.00,,,0.00,VWS V14.01,2013-04-07 11:24:00,
2013-04-07 07:30:00,31.9,27.3,30.27,ESE,105,0.0,1.0,83,0.00,,,0.00,VWS V14.01,2013-04-07 11:30:00,
2013-04-07 07:35:00,32.1,27.5,30.27,ESE,105,0.0,1.0,83,0.00,,,0.00,VWS V14.01,2013-04-07 11:35:00,
2013-04-07 07:40:00,32.5,27.9,30.27,ESE,105,0.0,1.0,83,0.00,,,0.00,VWS V14.01,2013-04-07 11:40:00,
2013-04-07 07:45:00,32.8,28.5,30.27,ESE,105,0.0,1.0,84,0.00,,,0.00,VWS V14.01,2013-04-07 11:45:00,
2013-04-07 07:50:00,33.3,29.0,30.27,ESE,105,0.0,1.0,84,0.00,,,0.00,VWS V14.01,2013-04-07 11:50:00,
2013-04-07 07:55:00,33.8,29.5,30.27,ESE,105,0.0,1.0,84,0.00,,,0.00,VWS V14.01,2013-04-07 11:55:00,
2013-04-07 08:00:00,34.3,30.0,30.27,ESE,105,0.0,1.0,84,0.00,,,0.00,VWS V14.01,2013-04-07 12:00:00,
2013-04-07 08:05:00,34.8,30.2,30.27,ESE,105,0.0,0.0,83,0.00,,,0.00,VWS V14.01,2013-04-07 12:05:00,
2013-04-07 08:10:00,35.3,30.7,30.26,ESE,105,0.0,1.0,83,0.00,,,0.00,VWS V14.01,2013-04-07 12:10:00,
2013-04-07 08:15:00,35.9,31.0,30.26,ESE,105,0.0,1.0,82,0.00,,,0.00,VWS V14.01,2013-04-07 12:15:00,
2013-04-07 08:21:00,36.4,31.1,30.27,ESE,105,0.0,1.0,81,0.00,,,0.00,VWS V14.01,2013-04-07 12:21:00,
2013-04-07 08:26:00,36.9,31.6,30.26,ESE,105,0.0,1.0,81,0.00,,,0.00,VWS V14.01,2013-04-07 12:26:00,
2013-04-07 08:31:00,37.5,31.6,30.26,ESE,105,0.0,0.0,79,0.00,,,0.00,VWS V14.01,2013-04-07 12:31:00,
2013-04-07 08:36:00,38.1,31.5,30.25,ESE,105,1.0,2.0,77,0.00,,,0.00,VWS V14.01,2013-04-07 12:36:00,
2013-04-07 08:41:00,38.8,30.9,30.25,South,184,3.0,5.0,73,0.00,,,0.00,VWS V14.01,2013-04-07 12:41:00,
2013-04-07 08:47:00,39.7,31.1,30.25,SSW,212,2.0,5.0,71,0.00,,,0.00,VWS V14.01,2013-04-07 12:47:00,
2013-04-07 08:52:00,40.7,31.0,30.25,SSW,212,1.0,5.0,68,0.00,,,0.00,VWS V14.01,2013-04-07 12:52:00,
2013-04-07 08:57:00,41.8,30.9,30.25,SE,142,1.0,5.0,65,0.00,,,0.00,VWS V14.01,2013-04-07 12:57:00,
2013-04-07 09:03:00,42.5,29.6,30.25,South,175,0.0,4.0,60,0.00,,,0.00,VWS V14.01,2013-04-07 13:03:00,
2013-04-07 09:08:00,42.8,28.2,30.24,South,170,5.0,6.0,56,0.00,,,0.00,VWS V14.01,2013-04-07 13:08:00,
2013-04-07 09:13:00,43.1,28.0,30.24,South,180,3.0,6.0,55,0.00,,,0.00,VWS V14.01,2013-04-07 13:13:00,
2013-04-07 09:18:00,43.1,26.2,30.24,South,186,2.0,7.0,51,0.00,,,0.00,VWS V14.01,2013-04-07 13:18:00,
2013-04-07 09:23:00,43.3,26.4,30.24,South,173,0.0,8.0,51,0.00,,,0.00,VWS V14.01,2013-04-07 13:23:00,
2013-04-07 09:28:00,43.5,25.6,30.24,South,171,4.0,9.0,49,0.00,,,0.00,VWS V14.01,2013-04-07 13:28:00,
2013-04-07 09:33:00,43.8,25.4,30.24,West,265,2.0,7.0,48,0.00,,,0.00,VWS V14.01,2013-04-07 13:33:00,
2013-04-07 09:38:00,44.1,24.7,30.24,South,183,4.0,7.0,46,0.00,,,0.00,VWS V14.01,2013-04-07 13:38:00,
2013-04-07 09:43:00,44.4,24.4,30.23,South,186,3.0,8.0,45,0.00,,,0.00,VWS V14.01,2013-04-07 13:43:00,
2013-04-07 09:48:00,44.8,24.8,30.23,South,185,0.0,8.0,45,0.00,,,0.00,VWS V14.01,2013-04-07 13:48:00,
2013-04-07 09:54:00,45.2,24.0,30.23,SE,146,1.0,8.0,43,0.00,,,0.00,VWS V14.01,2013-04-07 13:54:00,
2013-04-07 09:59:00,45.4,24.2,30.23,South,184,2.0,8.0,43,0.00,,,0.00,VWS V14.01,2013-04-07 13:59:00,
2013-04-07 10:04:00,46.3,26.7,30.22,SSW,194,2.0,6.0,46,0.00,,,0.00,VWS V14.01,2013-04-07 14:04:00,
2013-04-07 10:09:00,47.9,25.4,30.22,SSE,167,4.0,7.0,41,0.00,,,0.00,VWS V14.01,2013-04-07 14:09:00,
2013-04-07 10:14:00,49.0,25.8,30.22,SSW,200,6.0,7.0,40,0.00,,,0.00,VWS V14.01,2013-04-07 14:14:00,
2013-04-07 10:19:00,49.1,25.8,30.22,SE,126,5.0,8.0,40,0.00,,,0.00,VWS V14.01,2013-04-07 14:19:00,
2013-04-07 10:25:00,49.1,25.2,30.22,South,176,2.0,8.0,39,0.00,,,0.00,VWS V14.01,2013-04-07 14:25:00,
2013-04-07 10:30:00,48.9,25.0,30.22,South,182,3.0,8.0,39,0.00,,,0.00,VWS V14.01,2013-04-07 14:30:00,
2013-04-07 10:35:00,48.5,25.9,30.22,South,190,4.0,8.0,41,0.00,,,0.00,VWS V14.01,2013-04-07 14:35:00,
2013-04-07 10:40:00,48.6,26.6,30.22,South,179,2.0,8.0,42,0.00,,,0.00,VWS V14.01,2013-04-07 14:40:00,
2013-04-07 10:45:00,49.8,27.6,30.22,East,79,4.0,11.0,42,0.00,,,0.00,VWS V14.01,2013-04-07 14:45:00,
2013-04-07 10:50:00,50.6,27.2,30.21,SW,228,2.0,11.0,40,0.00,,,0.00,VWS V14.01,2013-04-07 14:50:00,
2013-04-07 10:55:00,50.3,26.9,30.21,South,184,3.0,11.0,40,0.00,,,0.00,VWS V14.01,2013-04-07 14:55:00,
2013-04-07 11:00:00,50.6,27.8,30.21,SSE,168,2.0,11.0,41,0.00,,,0.00,VWS V14.01,2013-04-07 15:00:00,
2013-04-07 11:05:00,51.1,28.2,30.21,South,178,2.0,7.0,41,0.00,,,0.00,VWS V14.01,2013-04-07 15:05:00,
2013-04-07 11:11:00,51.8,27.6,30.21,SW,224,2.0,7.0,39,0.00,,,0.00,VWS V14.01,2013-04-07 15:11:00,
2013-04-07 11:16:00,52.1,27.9,30.20,SSE,159,5.0,8.0,39,0.00,,,0.00,VWS V14.01,2013-04-07 15:16:00,
2013-04-07 11:21:00,52.1,26.6,30.20,South,177,6.0,9.0,37,0.00,,,0.00,VWS V14.01,2013-04-07 15:21:00,
2013-04-07 11:26:00,51.8,27.0,30.20,South,186,5.0,9.0,38,0.00,,,0.00,VWS V14.01,2013-04-07 15:26:00,
2013-04-07 11:31:00,51.5,27.4,30.19,SSW,200,3.0,6.0,39,0.00,,,0.00,VWS V14.01,2013-04-07 15:31:00,
2013-04-07 11:36:00,52.0,27.8,30.19,South,188,3.0,11.0,39,0.00,,,0.00,VWS V14.01,2013-04-07 15:36:00,
2013-04-07 11:41:00,52.4,28.8,30.19,SSW,193,0.0,11.0,40,0.00,,,0.00,VWS V14.01,2013-04-07 15:41:00,
2013-04-07 11:46:00,52.5,27.6,30.19,SSE,154,5.0,11.0,38,0.00,,,0.00,VWS V14.01,2013-04-07 15:46:00,
2013-04-07 11:51:00,52.1,28.5,30.18,South,184,3.0,11.0,40,0.00,,,0.00,VWS V14.01,2013-04-07 15:51:00,
2013-04-07 11:56:00,52.6,30.2,30.18,South,186,3.0,11.0,42,0.00,,,0.00,VWS V14.01,2013-04-07 15:56:00,
2013-04-07 12:01:00,53.1,30.6,30.17,SSW,194,3.0,5.0,42,0.00,,,0.00,VWS V14.01,2013-04-07 16:01:00,
2013-04-07 12:06:00,53.9,28.9,30.17,South,182,5.0,11.0,38,0.00,,,0.00,VWS V14.01,2013-04-07 16:06:00,
2013-04-07 12:12:00,53.5,27.9,30.17,South,190,4.0,11.0,37,0.00,,,0.00,VWS V14.01,2013-04-07 16:12:00,
2013-04-07 12:17:00,53.7,28.1,30.16,South,188,7.0,11.0,37,0.00,,,0.00,VWS V14.01,2013-04-07 16:17:00,
2013-04-07 12:22:00,53.5,27.9,30.15,South,175,6.0,11.0,37,0.00,,,0.00,VWS V14.01,2013-04-07 16:22:00,
2013-04-07 12:27:00,53.5,27.9,30.15,WSW,244,2.0,11.0,37,0.00,,,0.00,VWS V14.01,2013-04-07 16:27:00,
2013-04-07 12:32:00,53.5,29.2,30.15,South,175,2.0,7.0,39,0.00,,,0.00,VWS V14.01,2013-04-07 16:32:00,
2013-04-07 12:37:00,54.6,30.2,30.14,SSE,157,5.0,11.0,39,0.00,,,0.00,VWS V14.01,2013-04-07 16:37:00,
2013-04-07 12:42:00,54.9,31.0,30.14,SE,138,7.0,11.0,40,0.00,,,0.00,VWS V14.01,2013-04-07 16:42:00,
2013-04-07 12:47:00,55.6,31.1,30.14,South,177,6.0,11.0,39,0.00,,,0.00,VWS V14.01,2013-04-07 16:47:00,
2013-04-07 12:52:00,55.0,31.1,30.14,South,191,3.0,11.0,40,0.00,,,0.00,VWS V14.01,2013-04-07 16:52:00,
2013-04-07 12:57:00,55.2,31.3,30.13,South,185,4.0,11.0,40,0.00,,,0.00,VWS V14.01,2013-04-07 16:57:00,
2013-04-07 13:03:00,55.2,31.3,30.13,SSE,158,6.0,9.0,40,0.00,,,0.00,VWS V14.01,2013-04-07 17:03:00,
2013-04-07 13:08:00,55.1,31.2,30.12,WNW,292,4.0,9.0,40,0.00,,,0.00,VWS V14.01,2013-04-07 17:08:00,
2013-04-07 13:13:00,55.3,31.4,30.12,SSW,195,3.0,10.0,40,0.00,,,0.00,VWS V14.01,2013-04-07 17:13:00,
2013-04-07 13:18:00,55.5,32.8,30.11,South,169,1.0,10.0,42,0.00,,,0.00,VWS V14.01,2013-04-07 17:18:00,
2013-04-07 13:23:00,55.9,32.0,30.11,SSE,154,1.0,10.0,40,0.00,,,0.00,VWS V14.01,2013-04-07 17:23:00,
2013-04-07 13:28:00,55.6,32.3,30.11,West,259,4.0,10.0,41,0.00,,,0.00,VWS V14.01,2013-04-07 17:28:00,
2013-04-07 13:34:00,55.7,33.0,30.11,SE,134,6.0,15.0,42,0.00,,,0.00,VWS V14.01,2013-04-07 17:34:00,
2013-04-07 13:39:00,56.0,30.8,30.11,South,178,6.0,15.0,38,0.00,,,0.00,VWS V14.01,2013-04-07 17:39:00,
2013-04-07 13:44:00,54.8,32.2,30.10,SSW,194,4.0,15.0,42,0.00,,,0.00,VWS V14.01,2013-04-07 17:44:00,
2013-04-07 13:49:00,55.6,32.9,30.10,South,186,6.0,15.0,42,0.00,,,0.00,VWS V14.01,2013-04-07 17:49:00,
2013-04-07 13:54:00,55.9,32.6,30.09,SSE,168,2.0,15.0,41,0.00,,,0.00,VWS V14.01,2013-04-07 17:54:00,
2013-04-07 13:59:00,56.2,33.4,30.10,SSE,152,5.0,15.0,42,0.00,,,0.00,VWS V14.01,2013-04-07 17:59:00,
2013-04-07 14:04:00,56.7,33.9,30.09,SSE,165,2.0,6.0,42,0.00,,,0.00,VWS V14.01,2013-04-07 18:04:00,
2013-04-07 14:09:00,56.9,34.7,30.09,SSW,200,4.0,8.0,43,0.00,,,0.00,VWS V14.01,2013-04-07 18:09:00,
2013-04-07 14:15:00,57.1,33.6,30.08,SSW,203,2.0,16.0,41,0.00,,,0.00,VWS V14.01,2013-04-07 18:15:00,
2013-04-07 14:20:00,57.0,33.5,30.08,SSW,203,7.0,16.0,41,0.00,,,0.00,VWS V14.01,2013-04-07 18:20:00,
2013-04-07 14:25:00,57.1,34.8,30.08,South,169,2.0,16.0,43,0.00,,,0.00,VWS V14.01,2013-04-07 18:25:00,
2013-04-07 14:30:00,57.5,32.8,30.08,SSW,194,3.0,16.0,39,0.00,,,0.00,VWS V14.01,2013-04-07 18:30:00,
2013-04-07 14:35:00,57.5,33.4,30.07,SSW,200,3.0,12.0,40,0.00,,,0.00,VWS V14.01,2013-04-07 18:35:00,
2013-04-07 14:40:00,57.8,33.7,30.08,SSE,155,2.0,12.0,40,0.00,,,0.00,VWS V14.01,2013-04-07 18:40:00,
2013-04-07 14:45:00,57.5,32.1,30.07,East,79,3.0,12.0,38,0.00,,,0.00,VWS V14.01,2013-04-07 18:45:00,
2013-04-07 14:50:00,56.8,32.8,30.07,SSE,149,4.0,12.0,40,0.00,,,0.00,VWS V14.01,2013-04-07 18:50:00,
2013-04-07 14:56:00,56.4,33.6,30.07,SSW,208,5.0,12.0,42,0.00,,,0.00,VWS V14.01,2013-04-07 18:56:00,
2013-04-07 15:01:00,56.0,33.8,30.07,ESE,116,2.0,2.0,43,0.00,,,0.00,VWS V14.01,2013-04-07 19:01:00,
2013-04-07 15:06:00,55.7,34.1,30.06,South,191,4.0,6.0,44,0.00,,,0.00,VWS V14.01,2013-04-07 19:06:00,
2013-04-07 15:11:00,55.6,34.6,30.06,SSW,193,5.0,8.0,45,0.00,,,0.00,VWS V14.01,2013-04-07 19:11:00,
2013-04-07 15:16:00,55.5,34.5,30.06,SSE,167,6.0,8.0,45,0.00,,,0.00,VWS V14.01,2013-04-07 19:16:00,
2013-04-07 15:21:00,55.8,34.8,30.05,SSW,202,3.0,8.0,45,0.00,,,0.00,VWS V14.01,2013-04-07 19:21:00,
2013-04-07 15:26:00,56.1,35.1,30.05,SW,236,1.0,8.0,45,0.00,,,0.00,VWS V14.01,2013-04-07 19:26:00,
2013-04-07 15:31:00,55.6,34.0,30.05,South,183,5.0,10.0,44,0.00,,,0.00,VWS V14.01,2013-04-07 19:31:00,
2013-04-07 15:37:00,55.3,34.9,30.05,South,182,4.0,10.0,46,0.00,,,0.00,VWS V14.01,2013-04-07 19:37:00,
2013-04-07 15:42:00,55.3,34.9,30.04,South,191,4.0,10.0,46,0.00,,,0.00,VWS V14.01,2013-04-07 19:42:00,
2013-04-07 15:47:00,54.9,35.1,30.04,SSW,195,5.0,10.0,47,0.00,,,0.00,VWS V14.01,2013-04-07 19:47:00,
2013-04-07 15:52:00,54.7,35.4,30.04,SSE,165,4.0,10.0,48,0.00,,,0.00,VWS V14.01,2013-04-07 19:52:00,
2013-04-07 15:57:00,54.6,35.3,30.03,South,175,2.0,11.0,48,0.00,,,0.00,VWS V14.01,2013-04-07 19:57:00,
2013-04-07 16:02:00,54.5,35.2,30.02,South,178,6.0,6.0,48,0.00,,,0.00,VWS V14.01,2013-04-07 20:02:00,
2013-04-07 16:07:00,54.5,35.2,30.00,SSE,156,1.0,9.0,48,0.00,,,0.00,VWS V14.01,2013-04-07 20:07:00,
2013-04-07 16:12:00,54.4,35.1,29.99,ESE,123,4.0,9.0,48,0.00,,,0.00,VWS V14.01,2013-04-07 20:12:00,
2013-04-07 16:17:00,54.5,35.2,30.00,SW,215,3.0,12.0,48,0.00,,,0.00,VWS V14.01,2013-04-07 20:17:00,
2013-04-07 16:23:00,54.3,35.6,30.02,SSW,200,5.0,14.0,49,0.00,,,0.00,VWS V14.01,2013-04-07 20:23:00,
2013-04-07 16:28:00,54.8,36.5,30.03,South,184,3.0,14.0,50,0.00,,,0.00,VWS V14.01,2013-04-07 20:28:00,
2013-04-07 16:33:00,55.3,37.0,30.03,SSE,161,2.0,5.0,50,0.00,,,0.00,VWS V14.01,2013-04-07 20:33:00,
2013-04-07 16:38:00,55.3,37.0,30.04,ESE,120,5.0,8.0,50,0.00,,,0.00,VWS V14.01,2013-04-07 20:38:00,
2013-04-07 16:43:00,55.3,36.5,30.03,SE,144,5.0,8.0,49,0.00,,,0.00,VWS V14.01,2013-04-07 20:43:00,
2013-04-07 16:48:00,55.6,37.3,30.03,ESE,115,4.0,8.0,50,0.00,,,0.00,VWS V14.01,2013-04-07 20:48:00,
2013-04-07 16:53:00,55.5,37.2,30.03,South,179,5.0,8.0,50,0.00,,,0.00,VWS V14.01,2013-04-07 20:53:00,
2013-04-07 16:58:00,55.0,37.7,30.02,SE,146,0.0,8.0,52,0.00,,,0.00,VWS V14.01,2013-04-07 20:58:00,
2013-04-07 17:03:00,54.1,36.4,30.01,SSW,194,2.0,7.0,51,0.00,,,0.00,VWS V14.01,2013-04-07 21:03:00,
2013-04-07 17:08:00,53.6,37.4,30.01,SE,129,5.0,8.0,54,0.00,,,0.00,VWS V14.01,2013-04-07 21:08:00,
2013-04-07 17:13:00,53.7,37.9,30.01,SE,129,1.0,9.0,55,0.00,,,0.00,VWS V14.01,2013-04-07 21:13:00,
2013-04-07 17:18:00,53.3,37.6,30.01,East,101,2.0,10.0,55,0.00,,,0.00,VWS V14.01,2013-04-07 21:18:00,
2013-04-07 17:23:00,52.8,38.0,30.00,South,176,6.0,10.0,57,0.00,,,0.00,VWS V14.01,2013-04-07 21:23:00,
2013-04-07 17:29:00,52.3,38.0,29.99,SSW,213,4.0,10.0,58,0.00,,,0.00,VWS V14.01,2013-04-07 21:29:00,
2013-04-07 17:34:00,51.7,37.8,30.01,South,173,0.0,10.0,59,0.00,,,0.00,VWS V14.01,2013-04-07 21:34:00,
2013-04-07 17:39:00,51.5,38.1,30.01,South,172,2.0,10.0,60,0.00,,,0.00,VWS V14.01,2013-04-07 21:39:00,
2013-04-07 17:44:00,51.2,37.8,30.02,East,92,0.0,10.0,60,0.00,,,0.00,VWS V14.01,2013-04-07 21:44:00,
2013-04-07 17:49:00,51.0,38.0,30.01,East,94,0.0,10.0,61,0.00,,,0.00,VWS V14.01,2013-04-07 21:49:00,
2013-04-07 17:54:00,50.9,38.4,30.02,WSW,237,3.0,10.0,62,0.00,,,0.00,VWS V14.01,2013-04-07 21:54:00,
2013-04-07 17:59:00,50.8,38.3,30.02,SSE,160,1.0,10.0,62,0.00,,,0.00,VWS V14.01,2013-04-07 21:59:00,
2013-04-07 18:04:00,50.6,38.5,30.01,South,175,6.0,6.0,63,0.00,,,0.00,VWS V14.01,2013-04-07 22:04:00,
2013-04-07 18:10:00,50.5,39.6,30.01,SE,126,2.0,7.0,66,0.00,,,0.00,VWS V14.01,2013-04-07 22:10:00,
2013-04-07 18:15:00,50.3,39.4,30.01,SSW,194,1.0,7.0,66,0.00,,,0.00,VWS V14.01,2013-04-07 22:15:00,
2013-04-07 18:20:00,50.1,39.6,30.01,SSE,155,0.0,7.0,67,0.00,,,0.00,VWS V14.01,2013-04-07 22:20:00,
2013-04-07 18:25:00,50.0,40.2,30.00,SSE,155,2.0,7.0,69,0.00,,,0.00,VWS V14.01,2013-04-07 22:25:00,
2013-04-07 18:30:00,49.7,40.7,30.00,South,190,2.0,7.0,71,0.00,,,0.00,VWS V14.01,2013-04-07 22:30:00,
2013-04-07 18:35:00,49.6,40.2,30.00,SE,138,0.0,4.0,70,0.00,,,0.00,VWS V14.01,2013-04-07 22:35:00,
2013-04-07 18:40:00,49.7,40.3,30.01,South,172,0.0,6.0,70,0.00,,,0.00,VWS V14.01,2013-04-07 22:40:00,
2013-04-07 18:45:00,49.8,40.4,30.01,SSW,196,3.0,6.0,70,0.00,,,0.00,VWS V14.01,2013-04-07 22:45:00,
2013-04-07 18:50:00,49.9,40.5,30.01,South,184,0.0,6.0,70,0.00,,,0.00,VWS V14.01,2013-04-07 22:50:00,
2013-04-07 18:56:00,49.9,40.5,30.01,South,190,0.0,6.0,70,0.00,,,0.00,VWS V14.01,2013-04-07 22:56:00,
2013-04-07 19:01:00,49.9,40.5,30.01,SSW,201,1.0,6.0,70,0.00,,,0.00,VWS V14.01,2013-04-07 23:01:00,
2013-04-07 19:06:00,49.9,40.5,30.02,SSE,155,1.0,6.0,70,0.00,,,0.00,VWS V14.01,2013-04-07 23:06:00,
2013-04-07 19:11:00,49.9,40.9,30.02,South,185,2.0,6.0,71,0.00,,,0.00,VWS V14.01,2013-04-07 23:11:00,
2013-04-07 19:17:00,49.7,40.7,30.02,SSW,195,0.0,6.0,71,0.00,,,0.00,VWS V14.01,2013-04-07 23:17:00,
2013-04-07 19:22:00,49.5,40.9,30.02,SSW,194,3.0,6.0,72,0.00,,,0.00,VWS V14.01,2013-04-07 23:22:00,
2013-04-07 19:27:00,49.3,41.0,30.02,South,177,4.0,6.0,73,0.00,,,0.00,VWS V14.01,2013-04-07 23:27:00,
2013-04-07 19:32:00,49.0,41.1,30.02,WSW,250,1.0,5.0,74,0.00,,,0.00,VWS V14.01,2013-04-07 23:32:00,
2013-04-07 19:37:00,48.8,40.9,30.02,SW,217,1.0,5.0,74,0.00,,,0.00,VWS V14.01,2013-04-07 23:37:00,
2013-04-07 19:42:00,48.6,41.4,30.02,SSW,211,1.0,6.0,76,0.00,,,0.00,VWS V14.01,2013-04-07 23:42:00,
2013-04-07 19:47:00,48.3,41.1,30.02,SE,142,2.0,6.0,76,0.00,,,0.00,VWS V14.01,2013-04-07 23:47:00,
2013-04-07 19:52:00,48.0,41.2,30.02,South,183,0.0,6.0,77,0.00,,,0.00,VWS V14.01,2013-04-07 23:52:00,
2013-04-07 19:57:00,47.8,41.3,30.01,SSE,168,2.0,6.0,78,0.00,,,0.00,VWS V14.01,2013-04-07 23:57:00,
2013-04-07 20:02:00,47.6,41.1,30.01,South,178,1.0,4.0,78,0.00,,,0.00,VWS V14.01,2013-04-08 00:02:00,
2013-04-07 20:07:00,47.5,41.3,30.01,SSW,209,2.0,5.0,79,0.00,,,0.00,VWS V14.01,2013-04-08 00:07:00,
2013-04-07 20:12:00,47.4,41.2,30.01,SSW,200,2.0,5.0,79,0.00,,,0.00,VWS V14.01,2013-04-08 00:12:00,
2013-04-07 20:17:00,47.3,41.5,30.01,South,184,0.0,5.0,80,0.00,,,0.00,VWS V14.01,2013-04-08 00:17:00,
2013-04-07 20:22:00,47.1,41.3,30.01,SSW,209,1.0,5.0,80,0.00,,,0.00,VWS V14.01,2013-04-08 00:22:00,
2013-04-07 20:27:00,47.0,41.2,30.01,SSW,205,1.0,5.0,80,0.00,,,0.00,VWS V14.01,2013-04-08 00:27:00,
2013-04-07 20:33:00,46.9,41.4,30.02,SSW,209,0.0,1.0,81,0.00,,,0.00,VWS V14.01,2013-04-08 00:33:00,
2013-04-07 20:38:00,46.6,40.8,30.02,SSW,209,0.0,1.0,80,0.00,,,0.00,VWS V14.01,2013-04-08 00:38:00,
2013-04-07 20:43:00,46.2,40.7,30.02,SSW,209,0.0,1.0,81,0.00,,,0.00,VWS V14.01,2013-04-08 00:43:00,
2013-04-07 20:48:00,45.8,40.6,30.02,SSW,211,1.0,2.0,82,0.00,,,0.00,VWS V14.01,2013-04-08 00:48:00,
2013-04-07 20:53:00,45.7,41.2,30.02,SSW,211,0.0,2.0,84,0.00,,,0.00,VWS V14.01,2013-04-08 00:53:00,
2013-04-07 20:58:00,45.5,41.0,30.02,SW,220,0.0,2.0,84,0.00,,,0.00,VWS V14.01,2013-04-08 00:58:00,
2013-04-07 21:03:00,45.4,40.5,30.02,SW,220,0.0,0.0,83,0.00,,,0.00,VWS V14.01,2013-04-08 01:03:00,
2013-04-07 21:08:00,45.0,40.5,30.02,SSW,207,0.0,3.0,84,0.00,,,0.00,VWS V14.01,2013-04-08 01:08:00,
2013-04-07 21:13:00,44.6,39.8,30.02,SSW,207,0.0,3.0,83,0.00,,,0.00,VWS V14.01,2013-04-08 01:13:00,
2013-04-07 21:19:00,44.3,40.1,30.02,SSW,210,0.0,3.0,85,0.00,,,0.00,VWS V14.01,2013-04-08 01:19:00,
2013-04-07 21:24:00,44.0,39.8,30.02,SSW,210,0.0,3.0,85,0.00,,,0.00,VWS V14.01,2013-04-08 01:24:00,
2013-04-07 21:29:00,43.7,39.8,30.02,SSW,210,0.0,3.0,86,0.00,,,0.00,VWS V14.01,2013-04-08 01:29:00,
2013-04-07 21:34:00,43.4,39.5,30.02,SSW,210,0.0,0.0,86,0.00,,,0.00,VWS V14.01,2013-04-08 01:34:00,
2013-04-07 21:39:00,43.2,39.9,30.02,SSW,210,0.0,0.0,88,0.00,,,0.00,VWS V14.01,2013-04-08 01:39:00,
2013-04-07 21:44:00,43.0,39.7,30.02,SSW,210,0.0,0.0,88,0.00,,,0.00,VWS V14.01,2013-04-08 01:44:00,
2013-04-07 21:49:00,42.8,39.5,30.02,SSW,210,0.0,0.0,88,0.00,,,0.00,VWS V14.01,2013-04-08 01:49:00,
2013-04-07 21:55:00,42.7,39.4,30.02,SSW,210,0.0,0.0,88,0.00,,,0.00,VWS V14.01,2013-04-08 01:55:00,
2013-04-07 22:00:00,42.5,39.5,30.02,SSW,210,0.0,0.0,89,0.00,,,0.00,VWS V14.01,2013-04-08 02:00:00,
2013-04-07 22:05:00,42.4,39.7,30.02,SSW,210,0.0,0.0,90,0.00,,,0.00,VWS V14.01,2013-04-08 02:05:00,
2013-04-07 22:10:00,42.4,39.7,30.01,SSW,210,0.0,0.0,90,0.00,,,0.00,VWS V14.01,2013-04-08 02:10:00,
2013-04-07 22:15:00,42.4,39.7,30.01,SSW,210,0.0,0.0,90,0.00,,,0.00,VWS V14.01,2013-04-08 02:15:00,
2013-04-07 22:20:00,42.3,39.6,30.01,SSW,210,0.0,0.0,90,0.00,,,0.00,VWS V14.01,2013-04-08 02:20:00,
2013-04-07 22:25:00,42.1,39.4,30.01,SSW,210,0.0,0.0,90,0.00,,,0.00,VWS V14.01,2013-04-08 02:25:00,
2013-04-07 22:30:00,42.0,39.3,30.01,SSW,210,0.0,0.0,90,0.00,,,0.00,VWS V14.01,2013-04-08 02:30:00,
2013-04-07 22:35:00,41.8,39.1,30.01,SSW,210,0.0,0.0,90,0.00,,,0.00,VWS V14.01,2013-04-08 02:35:00,
2013-04-07 22:40:00,41.7,39.0,30.01,SSW,210,0.0,0.0,90,0.00,,,0.00,VWS V14.01,2013-04-08 02:40:00,
2013-04-07 22:46:00,41.6,38.9,30.01,SSW,210,0.0,0.0,90,0.00,,,0.00,VWS V14.01,2013-04-08 02:46:00,
2013-04-07 22:51:00,41.4,38.7,30.01,SSW,210,0.0,0.0,90,0.00,,,0.00,VWS V14.01,2013-04-08 02:51:00,
2013-04-07 22:56:00,41.3,38.9,30.01,SSW,210,0.0,0.0,91,0.00,,,0.00,VWS V14.01,2013-04-08 02:56:00,
2013-04-07 23:01:00,41.4,39.0,30.01,SSW,210,0.0,0.0,91,0.00,,,0.00,VWS V14.01,2013-04-08 03:01:00,
2013-04-07 23:07:00,41.3,38.9,30.01,SSW,211,0.0,0.0,91,0.00,,,0.00,VWS V14.01,2013-04-08 03:07:00,
2013-04-07 23:12:00,41.1,38.7,30.00,SSW,210,0.0,0.0,91,0.00,,,0.00,VWS V14.01,2013-04-08 03:12:00,
2013-04-07 23:17:00,41.0,38.9,30.01,SSW,210,0.0,0.0,92,0.00,,,0.00,VWS V14.01,2013-04-08 03:17:00,
2013-04-07 23:22:00,41.0,38.9,30.01,SSW,210,0.0,0.0,92,0.00,,,0.00,VWS V14.01,2013-04-08 03:22:00,
2013-04-07 23:27:00,40.9,38.5,30.00,SSW,210,0.0,0.0,91,0.00,,,0.00,VWS V14.01,2013-04-08 03:27:00,
2013-04-07 23:32:00,40.8,38.7,30.00,SSW,210,0.0,0.0,92,0.00,,,0.00,VWS V14.01,2013-04-08 03:32:00,
2013-04-07 23:37:00,40.8,38.7,30.00,SSW,210,0.0,0.0,92,0.00,,,0.00,VWS V14.01,2013-04-08 03:37:00,
2013-04-07 23:42:00,40.8,38.7,30.00,SSW,210,0.0,0.0,92,0.00,,,0.00,VWS V14.01,2013-04-08 03:42:00,
2013-04-07 23:47:00,40.8,38.7,30.01,SSW,210,0.0,0.0,92,0.00,,,0.00,VWS V14.01,2013-04-08 03:47:00,
2013-04-07 23:52:00,40.7,38.6,30.00,SSW,210,0.0,0.0,92,0.00,,,0.00,VWS V14.01,2013-04-08 03:52:00,
2013-04-07 23:58:00,40.6,38.5,30.00,SSW,211,0.0,0.0,92,0.00,,,0.00,VWS V14.01,2013-04-08 03:58:00,